YAOGAN-6

Last updated on Fri Oct 04 2024 00:02:25 GMT+0000 (Coordinated Universal Time)

1 34839U 09021A 24277.48137648 .00053993 00000+0 78274-3 0 9991 2 34839 97.1834 244.7158 0017128 130.3199 229.9555 15.55515566860226
UTC large
Height (km)
Speed (km/s)
/
Latitude / Longitude
Inclination (degrees)
Orbital Period (minutes)
Azimuth
Elevation
Range (km)
Doppler Factor

Next 0 passes for location: London (51.5072 / 0.1276)

Sorry there are no passes over London.